sat.trackr.live / text

‹ back to catalog

AETHER-1

NORAD 58281 · 2023-174AB

PAYLOAD ACTIVE UNKNOWN

§ Identity

Operator
Country
CA
Launch date
2023-11-11
Launch site
AFWTR
Launch vehicle
Mass (kg)
RCS (m²)

External: N2YO · Heavens-Above · Gunter

§ Orbital elements

Epoch: 2026-07-19T05:06:07.354368Z

Period
87.70 min
Inclination
97.3533°
Eccentricity
0.0016382
Mean motion
16.41994178 rev/d
Perigee alt
149.8 km
Apogee alt
171.2 km
Semi-major
6,538.6 km
B*
3.8160e-4
RAAN
297.7295°
Arg perigee
268.8113°
Mean anomaly
91.1311°
Rev number
15,107

§ Raw data

AETHER-11 58281U 23174AB  26200.21258512  .09369101  25320-5  38160-3 0  99942 58281  97.3533 297.7295 0016382 268.8113  91.1311 16.41994178151076

JSON: /api/v1/satellites/58281 · /tle

For live sub-satellite position, see the globe view (requires WebGL).

§ Visibility from observer

Set your observer location to see the next 7 days of passes ≥ 10°. The values pass through the URL so the page stays shareable.

No JS? Fill the form by hand. The geolocation button needs JavaScript.